Miscellaneous Local Product
Issued by NWS Hastings, NE

Home | Current Version | Previous Version | Graphics & Text | Print | Product List | Glossary On
Versions: 1 2 3 4 5 6 7 8 9 10 11 12 13 14 15 16 17 18 19 20 21 22 23 24 25 26 27 28 29 30 31 32 33 34 35 36 37 38 39 40 41 42 43 44 45 46 47 48 49 50
000
AXUS43 KGID 310102
MISGRI

GID CWA HOURLY WEATHER ROUNDUP
NATIONAL WEATHER SERVICE HASTINGS NE
800 PM CDT MON MAR 30 2015

NOTE: "FAIR" INDICATES FEW OR NO CLOUDS BELOW 12,000 FEET WITH NO
SIGNIFICANT WEATHER AND/OR OBSTRUCTIONS TO VISIBILITY.

...SOUTH CENTRAL NEBRASKA...

CITY           SKY/WX    TMP DP  RH WIND       PRES   REMARKS
GRAND ISLAND   PTCLDY    61  26  26 N9        29.95R
HASTINGS       PTCLDY    66  25  21 N6        29.94R
KEARNEY          N/A    N/A N/A N/A MISG        N/A
ORD            CLEAR     64  25  22 N10       29.95R
YORK           PTCLDY    63  30  29 CALM      29.93R
AURORA         PTCLDY    64  26  23 N5        29.93S
LEXINGTON      PTCLDY    66  24  20 N9        29.97R
HOLDREGE       CLEAR     67  19  16 CALM      29.95S
HEBRON         CLEAR     72  18  13 N10       29.92R

...NEBRASKA PANHANDLE...

CITY           SKY/WX    TMP DP  RH WIND       PRES   REMARKS
CHADRON        CLEAR     63  28  26 NW9       30.01R
ALLIANCE       CLEAR     62  28  27 N8        30.03R
SCOTTSBLUFF    CLEAR     65  27  23 N7        30.03S
SIDNEY         CLEAR     62  26  25 NE6       30.06R

...WESTERN AND NORTH CENTRAL NEBRASKA...

CITY           SKY/WX    TMP DP  RH WIND       PRES   REMARKS
VALENTINE      CLEAR     64  26  23 N9        29.99R
AINSWORTH      CLEAR     64  26  23 NW8       29.99S
ONEILL         CLEAR     65  29  26 NW8       29.96R
BROKEN BOW     CLEAR     64  27  24 N13       29.98R
IMPERIAL         N/A     65  21  18 N10       30.01R
NORTH PLATTE   CLEAR     67  21  17 N10       29.99R
MCCOOK         CLEAR     67  19  16 NW12      29.97R

...EASTERN NEBRASKA...

CITY           SKY/WX    TMP DP  RH WIND       PRES   REMARKS
NORFOLK        CLEAR     65  32  29 NW10      29.91R
SO SIOUX CITY  PTCLDY    68  29  23 NW12      29.87R
TEKAMAH        PTCLDY    68  27  21 NW13      29.87R
COLUMBUS       PTCLDY    66  27  22 NW10      29.93R
ALBION         CLEAR     66  28  23 NW7       29.93R
OMAHA EPPLEY   PTCLDY    71  30  21 W8        29.86S
MILLARD        CLEAR     71  32  23 SW5       29.88R
LINCOLN        MOCLDY    67  29  24 W3        29.91S
NEBRASKA CITY  MOCLDY    67  31  26 W7        29.89S
BEATRICE       MOCLDY    63  35  35 N8        29.91R
FALLS CITY     PTCLDY    69  33  26 SW9       29.89F

...NORTHERN KANSAS...

CITY           SKY/WX    TMP DP  RH WIND       PRES   REMARKS
GOODLAND       CLEAR     66  18  15 N9        30.02R
HILL CITY      CLEAR     65  23  20 N7        29.96R
NORTON         CLEAR     66  16  14 NE5       29.95R
PHILLIPSBURG   CLEAR     73  21  14 N6        29.94S
SMITH CENTER   CLEAR     70  25  18 N9        29.93R
BELOIT         CLEAR     59  25  27 NE5       29.89R
HAYS           PTCLDY    73  21  14 N12       29.92R
RUSSELL        CLEAR     73  27  18 N9        29.88R
CONCORDIA      CLEAR     70  38  31 S9        29.90R
SALINA         CLEAR     70  39  32 S13       29.90F
TOPEKA         CLEAR     68  34  28 S7        29.94F



USA.gov is the U.S. government's official web portal to all federal, state and local government web resources and services.